Location: Newark
(25.6108°S, 54.5803°W)
Time: 07:50:11
(UTC+00:00)

deb Explorer IX - Pass Details

Date: 29 October 2020
Orbit: 537 x 1105 km, 38.8° (Epoch: 02 December)

Event Time Altitude Azimuth Distance (km) Brightness Sun altitude
Rises 20:51:23 0° 269° (W) 3,421 ? 12.7°
Reaches altitude 10° 20:54:27 10° 258° (WSW) 2,378 ? 12.0°
Maximum altitude 20:59:07 27° 200° (SSW) 1,371 ? 11.0°
Drops below altitude 10° 21:03:14 10° 142° (SE) 2,075 ? 10.1°
Sets 21:05:45 0° 129° (SE) 2,906 ? 9.5°
